Location: Berlise
(49.6641°N, 4.1077°E)
Time: 23:30:31
(UTC+00:00)

Iridium 4 Rocket - Pass Details

Date: 27 January 2021
Orbit: 583 x 906 km, 86.9° (Epoch: 01 March)

Event Time Altitude Azimuth Distance (km) Brightness Sun altitude
Rises 06:33:16 0° 176° (S) 3,461 7.2 -8.2°
Reaches altitude 10° 06:35:39 10° 176° (S) 2,551 6.5 -7.8°
Maximum altitude 06:41:29 79° 90° (E) 929 4.1 -6.9°
Drops below altitude 10° 06:47:25 10° 5° (N) 2,590 6.1 -6.0°
Sets 06:49:52 0° 5° (N) 3,518 6.7 -5.6°
